Time,TemperatureF,DewpointF,PressureIn,WindDirection,WindDirectionDegrees,WindSpeedMPH,WindSpeedGustMPH,Humidity,HourlyPrecipIn,Conditions,Clouds,dailyrainin,SoftwareType,DateUTC
2013-09-06 00:00:00,65.4,63.0,30.14,North,0,0.0,1.0,92,0.00,,,0.00,Cumulus v1.9.3,2013-09-06 05:00:00,
2013-09-06 00:03:00,64.8,62.4,30.14,ENE,65,0.0,1.0,92,0.00,,SKC,0.00,VWS V14.01,2013-09-06 05:03:00,
2013-09-06 00:08:00,64.9,62.5,30.14,ENE,65,0.0,0.0,92,0.00,,SKC,0.00,VWS V14.01,2013-09-06 05:08:00,
2013-09-06 00:13:00,64.9,62.8,30.14,ENE,64,0.0,0.0,93,0.00,,SKC,0.00,VWS V14.01,2013-09-06 05:13:00,
2013-09-06 00:18:00,64.9,62.8,30.14,ENE,64,0.0,0.0,93,0.00,,SKC,0.00,VWS V14.01,2013-09-06 05:18:00,
2013-09-06 00:23:00,64.8,62.7,30.14,ENE,64,0.0,0.0,93,0.00,,SKC,0.00,VWS V14.01,2013-09-06 05:23:00,
2013-09-06 00:28:00,64.7,62.6,30.14,ENE,64,0.0,0.0,93,0.00,,SKC,0.00,VWS V14.01,2013-09-06 05:28:00,
2013-09-06 00:33:00,64.7,62.6,30.15,ENE,64,0.0,0.0,93,0.00,,SKC,0.00,VWS V14.01,2013-09-06 05:33:00,
2013-09-06 00:38:00,64.7,62.6,30.14,ENE,64,0.0,0.0,93,0.00,,SKC,0.00,VWS V14.01,2013-09-06 05:38:00,
2013-09-06 00:43:00,64.8,62.7,30.14,ENE,64,0.0,0.0,93,0.00,,SKC,0.00,VWS V14.01,2013-09-06 05:43:00,
2013-09-06 00:48:00,64.7,62.6,30.14,ENE,64,0.0,0.0,93,0.00,,SKC,0.00,VWS V14.01,2013-09-06 05:48:00,
2013-09-06 00:53:00,64.6,62.5,30.14,ENE,64,0.0,0.0,93,0.00,,SKC,0.00,VWS V14.01,2013-09-06 05:53:00,
2013-09-06 00:58:00,64.6,62.5,30.14,ENE,64,0.0,0.0,93,0.00,,SKC,0.00,VWS V14.01,2013-09-06 05:58:00,
2013-09-06 01:00:00,64.8,62.7,30.14,North,0,0.0,1.0,93,0.00,,,0.00,Cumulus v1.9.3,2013-09-06 06:00:00,
2013-09-06 01:03:00,64.7,62.6,30.14,ENE,64,0.0,0.0,93,0.00,,SKC,0.00,VWS V14.01,2013-09-06 06:03:00,
2013-09-06 01:08:00,64.7,62.6,30.14,ENE,64,0.0,0.0,93,0.00,,SKC,0.00,VWS V14.01,2013-09-06 06:08:00,
2013-09-06 01:13:00,64.6,62.5,30.14,ENE,64,0.0,0.0,93,0.00,,SKC,0.00,VWS V14.01,2013-09-06 06:13:00,
2013-09-06 01:18:00,64.6,62.5,30.14,ENE,64,0.0,0.0,93,0.00,,SKC,0.00,VWS V14.01,2013-09-06 06:18:00,
2013-09-06 01:23:00,64.5,62.4,30.14,ENE,64,0.0,0.0,93,0.00,,SKC,0.00,VWS V14.01,2013-09-06 06:23:00,
2013-09-06 01:28:00,64.5,62.4,30.14,ENE,64,0.0,0.0,93,0.00,,SKC,0.00,VWS V14.01,2013-09-06 06:28:00,
2013-09-06 01:33:00,64.5,62.4,30.14,ENE,64,0.0,1.0,93,0.00,,SKC,0.00,VWS V14.01,2013-09-06 06:33:00,
2013-09-06 01:37:00,64.4,62.3,30.14,ENE,64,0.0,0.0,93,0.00,,SKC,0.00,VWS V14.01,2013-09-06 06:37:00,
2013-09-06 01:42:00,64.4,62.3,30.14,ENE,64,0.0,0.0,93,0.00,,SKC,0.00,VWS V14.01,2013-09-06 06:42:00,
2013-09-06 01:47:00,64.4,62.3,30.14,ENE,63,0.0,1.0,93,0.00,,SKC,0.00,VWS V14.01,2013-09-06 06:47:00,
2013-09-06 01:52:00,64.4,62.3,30.14,North,355,0.0,1.0,93,0.00,,SKC,0.00,VWS V14.01,2013-09-06 06:52:00,
2013-09-06 01:57:00,64.3,62.2,30.14,North,355,0.0,0.0,93,0.00,,SKC,0.00,VWS V14.01,2013-09-06 06:57:00,
2013-09-06 02:00:00,64.5,62.4,30.14,North,0,0.0,3.0,93,0.00,,,0.00,Cumulus v1.9.3,2013-09-06 07:00:00,
2013-09-06 02:02:00,64.3,62.2,30.14,North,355,0.0,0.0,93,0.00,,SKC,0.00,VWS V14.01,2013-09-06 07:02:00,
2013-09-06 02:07:00,64.2,62.1,30.13,North,355,0.0,0.0,93,0.00,,SKC,0.00,VWS V14.01,2013-09-06 07:07:00,
2013-09-06 02:12:00,64.1,62.0,30.13,North,355,0.0,0.0,93,0.00,,SKC,0.00,VWS V14.01,2013-09-06 07:12:00,
2013-09-06 02:17:00,64.1,62.0,30.13,North,355,0.0,0.0,93,0.00,,SKC,0.00,VWS V14.01,2013-09-06 07:17:00,
2013-09-06 02:22:00,64.1,62.0,30.13,North,355,0.0,0.0,93,0.00,,SKC,0.00,VWS V14.01,2013-09-06 07:22:00,
2013-09-06 02:27:00,64.1,62.0,30.13,North,355,0.0,1.0,93,0.00,,SKC,0.00,VWS V14.01,2013-09-06 07:27:00,
2013-09-06 02:32:00,64.1,62.0,30.13,North,355,0.0,0.0,93,0.00,,SKC,0.00,VWS V14.01,2013-09-06 07:32:00,
2013-09-06 02:37:00,64.0,61.9,30.13,North,355,0.0,0.0,93,0.00,,SKC,0.00,VWS V14.01,2013-09-06 07:37:00,
2013-09-06 02:42:00,64.0,61.9,30.13,North,355,0.0,0.0,93,0.00,,SKC,0.00,VWS V14.01,2013-09-06 07:42:00,
2013-09-06 02:47:00,64.1,62.0,30.12,North,355,0.0,0.0,93,0.00,,SKC,0.00,VWS V14.01,2013-09-06 07:47:00,
2013-09-06 02:52:00,64.1,62.0,30.13,North,355,0.0,0.0,93,0.00,,SKC,0.00,VWS V14.01,2013-09-06 07:52:00,
2013-09-06 02:57:00,64.1,62.0,30.13,North,355,0.0,0.0,93,0.00,,SKC,0.00,VWS V14.01,2013-09-06 07:57:00,
2013-09-06 03:00:00,64.1,62.0,30.13,North,0,0.0,1.0,93,0.00,,,0.00,Cumulus v1.9.3,2013-09-06 08:00:00,
2013-09-06 03:02:00,64.0,61.9,30.13,North,355,0.0,0.0,93,0.00,,SKC,0.00,VWS V14.01,2013-09-06 08:02:00,
2013-09-06 03:07:00,64.0,61.9,30.13,North,355,0.0,0.0,93,0.00,,SKC,0.00,VWS V14.01,2013-09-06 08:07:00,
2013-09-06 03:12:00,64.0,61.9,30.13,North,355,0.0,0.0,93,0.00,,SKC,0.00,VWS V14.01,2013-09-06 08:12:00,
2013-09-06 03:17:00,64.0,61.9,30.13,North,355,1.0,2.0,93,0.00,,SKC,0.00,VWS V14.01,2013-09-06 08:17:00,
2013-09-06 03:22:00,64.0,61.9,30.12,North,355,0.0,0.0,93,0.00,,SKC,0.00,VWS V14.01,2013-09-06 08:22:00,
2013-09-06 03:27:00,64.0,61.9,30.12,North,355,0.0,0.0,93,0.00,,SKC,0.00,VWS V14.01,2013-09-06 08:27:00,
2013-09-06 03:32:00,63.9,61.8,30.12,North,355,1.0,1.0,93,0.00,,SKC,0.00,VWS V14.01,2013-09-06 08:32:00,
2013-09-06 03:37:00,63.9,61.8,30.12,North,355,0.0,0.0,93,0.00,,SKC,0.00,VWS V14.01,2013-09-06 08:37:00,
2013-09-06 03:42:00,63.9,61.8,30.12,North,355,0.0,0.0,93,0.00,,SKC,0.00,VWS V14.01,2013-09-06 08:42:00,
2013-09-06 03:47:00,63.9,62.1,30.12,North,355,0.0,0.0,94,0.00,,SKC,0.00,VWS V14.01,2013-09-06 08:47:00,
2013-09-06 03:52:00,63.9,62.1,30.12,North,355,0.0,0.0,94,0.00,,SKC,0.00,VWS V14.01,2013-09-06 08:52:00,
2013-09-06 03:57:00,63.9,62.1,30.12,North,355,0.0,0.0,94,0.00,,SKC,0.00,VWS V14.01,2013-09-06 08:57:00,
2013-09-06 04:00:00,63.9,62.1,30.12,North,0,0.0,2.0,94,0.00,,,0.00,Cumulus v1.9.3,2013-09-06 09:00:00,
2013-09-06 04:02:00,63.9,62.1,30.12,North,355,0.0,0.0,94,0.00,,SKC,0.00,VWS V14.01,2013-09-06 09:02:00,
2013-09-06 04:07:00,63.9,62.1,30.12,North,355,0.0,0.0,94,0.00,,SKC,0.00,VWS V14.01,2013-09-06 09:07:00,
2013-09-06 04:12:00,63.9,62.1,30.12,North,355,0.0,0.0,94,0.00,,SKC,0.00,VWS V14.01,2013-09-06 09:12:00,
2013-09-06 04:17:00,63.9,62.1,30.12,North,355,0.0,0.0,94,0.00,,SKC,0.00,VWS V14.01,2013-09-06 09:17:00,
2013-09-06 04:22:00,63.9,62.1,30.12,North,355,1.0,1.0,94,0.00,,SKC,0.00,VWS V14.01,2013-09-06 09:22:00,
2013-09-06 04:27:00,63.8,61.7,30.12,North,355,0.0,2.0,93,0.00,,SKC,0.00,VWS V14.01,2013-09-06 09:27:00,
2013-09-06 04:32:00,63.8,61.7,30.11,North,355,0.0,1.0,93,0.00,,SKC,0.00,VWS V14.01,2013-09-06 09:32:00,
2013-09-06 04:37:00,63.7,61.6,30.12,North,355,2.0,2.0,93,0.00,,SKC,0.00,VWS V14.01,2013-09-06 09:37:00,
2013-09-06 04:42:00,63.6,61.5,30.12,North,355,0.0,0.0,93,0.00,,SKC,0.00,VWS V14.01,2013-09-06 09:42:00,
2013-09-06 04:47:00,63.5,61.4,30.12,North,355,0.0,0.0,93,0.00,,SKC,0.00,VWS V14.01,2013-09-06 09:47:00,
2013-09-06 04:52:00,63.5,61.8,30.12,North,355,0.0,0.0,94,0.00,,SKC,0.00,VWS V14.01,2013-09-06 09:52:00,
2013-09-06 04:57:00,63.5,61.8,30.12,North,355,0.0,0.0,94,0.00,,SKC,0.00,VWS V14.01,2013-09-06 09:57:00,
2013-09-06 05:00:00,63.7,61.9,30.12,North,0,0.0,2.0,94,0.00,,,0.00,Cumulus v1.9.3,2013-09-06 10:00:00,
2013-09-06 05:02:00,63.4,61.7,30.12,North,355,0.0,2.0,94,0.00,,SKC,0.00,VWS V14.01,2013-09-06 10:02:00,
2013-09-06 05:07:00,63.3,61.5,30.12,North,355,0.0,1.0,94,0.00,,SKC,0.00,VWS V14.01,2013-09-06 10:07:00,
2013-09-06 05:12:00,63.2,61.5,30.12,North,355,0.0,0.0,94,0.00,,SKC,0.00,VWS V14.01,2013-09-06 10:12:00,
2013-09-06 05:17:00,63.2,61.2,30.12,North,355,0.0,0.0,93,0.00,,SKC,0.00,VWS V14.01,2013-09-06 10:17:00,
2013-09-06 05:22:00,63.2,61.5,30.12,North,355,0.0,0.0,94,0.00,,SKC,0.00,VWS V14.01,2013-09-06 10:22:00,
2013-09-06 05:27:00,63.2,61.5,30.11,North,355,0.0,3.0,94,0.00,,SKC,0.00,VWS V14.01,2013-09-06 10:27:00,
2013-09-06 05:32:00,63.3,61.5,30.12,North,360,0.0,3.0,94,0.00,,SKC,0.00,VWS V14.01,2013-09-06 10:32:00,
2013-09-06 05:37:00,63.3,61.5,30.11,North,360,0.0,2.0,94,0.00,,SKC,0.00,VWS V14.01,2013-09-06 10:37:00,
2013-09-06 05:42:00,63.3,61.5,30.12,North,360,0.0,1.0,94,0.00,,SKC,0.00,VWS V14.01,2013-09-06 10:42:00,
2013-09-06 05:47:00,63.2,61.5,30.12,North,360,0.0,0.0,94,0.00,,SKC,0.00,VWS V14.01,2013-09-06 10:47:00,
2013-09-06 05:52:00,63.2,61.5,30.12,North,360,1.0,1.0,94,0.00,,SKC,0.00,VWS V14.01,2013-09-06 10:52:00,
2013-09-06 05:57:00,63.2,61.5,30.12,North,360,0.0,0.0,94,0.00,,SKC,0.00,VWS V14.01,2013-09-06 10:57:00,
2013-09-06 06:00:00,63.4,61.7,30.12,North,355,0.0,0.0,94,0.00,,SKC,0.00,VWS V14.01,2013-09-06 11:00:00,
2013-09-06 06:02:00,63.1,61.3,30.12,North,360,0.0,0.0,94,0.00,,SKC,0.00,VWS V14.01,2013-09-06 11:02:00,
2013-09-06 06:07:00,63.0,61.2,30.12,North,360,2.0,2.0,94,0.00,,SKC,0.00,VWS V14.01,2013-09-06 11:07:00,
2013-09-06 06:12:00,62.8,61.0,30.12,North,360,0.0,3.0,94,0.00,,SKC,0.00,VWS V14.01,2013-09-06 11:12:00,
2013-09-06 06:17:00,62.6,60.8,30.13,North,360,1.0,2.0,94,0.00,,SKC,0.00,VWS V14.01,2013-09-06 11:17:00,
2013-09-06 06:23:00,62.6,60.8,30.13,North,355,1.0,1.0,94,0.00,,,0.00,Cumulus v1.9.3,2013-09-06 11:23:00,
2013-09-06 06:24:00,62.5,60.7,30.13,North,355,1.0,2.0,94,0.00,,,0.00,Cumulus v1.9.3,2013-09-06 11:24:00,
2013-09-06 06:28:00,62.5,60.7,30.13,North,355,1.0,2.0,94,0.00,,,0.00,Cumulus v1.9.3,2013-09-06 11:28:00,
2013-09-06 06:30:00,62.5,60.7,30.13,North,355,1.0,2.0,94,0.00,,,0.00,Cumulus v1.9.3,2013-09-06 11:30:00,
2013-09-06 06:31:00,62.5,60.7,30.13,North,355,1.0,2.0,94,0.00,,,0.00,Cumulus v1.9.3,2013-09-06 11:31:00,
2013-09-06 06:32:00,62.5,60.7,30.13,North,355,1.0,2.0,94,0.00,,,0.00,Cumulus v1.9.3,2013-09-06 11:32:00,
2013-09-06 06:33:00,62.5,60.7,30.13,North,355,1.0,2.0,94,0.00,,,0.00,Cumulus v1.9.3,2013-09-06 11:33:00,
2013-09-06 06:34:00,62.5,60.7,30.13,North,355,1.0,2.0,94,0.00,,,0.00,Cumulus v1.9.3,2013-09-06 11:34:00,
2013-09-06 06:36:00,62.5,60.7,30.13,North,355,0.0,1.0,94,0.00,,,0.00,Cumulus v1.9.3,2013-09-06 11:36:00,
2013-09-06 06:38:00,62.5,60.7,30.13,North,355,0.0,1.0,94,0.00,,,0.00,Cumulus v1.9.3,2013-09-06 11:38:00,
2013-09-06 06:39:00,62.5,60.7,30.13,North,355,0.0,1.0,94,0.00,,,0.00,Cumulus v1.9.3,2013-09-06 11:39:00,
2013-09-06 06:40:00,62.5,60.7,30.13,North,0,0.0,1.0,94,0.00,,,0.00,Cumulus v1.9.3,2013-09-06 11:40:00,
2013-09-06 06:42:00,62.5,60.7,30.13,North,0,0.0,1.0,94,0.00,,,0.00,Cumulus v1.9.3,2013-09-06 11:42:00,
2013-09-06 06:44:00,62.5,60.7,30.13,North,0,0.0,0.0,94,0.00,,,0.00,Cumulus v1.9.3,2013-09-06 11:44:00,
2013-09-06 06:45:00,62.5,60.7,30.13,North,0,0.0,0.0,94,0.00,,,0.00,Cumulus v1.9.3,2013-09-06 11:45:00,
2013-09-06 06:47:00,62.4,60.7,30.13,North,0,0.0,0.0,94,0.00,,,0.00,Cumulus v1.9.3,2013-09-06 11:47:00,
2013-09-06 06:49:00,62.4,60.7,30.13,North,0,0.0,0.0,94,0.00,,,0.00,Cumulus v1.9.3,2013-09-06 11:49:00,
2013-09-06 06:50:00,62.4,60.7,30.13,North,0,0.0,0.0,94,0.00,,,0.00,Cumulus v1.9.3,2013-09-06 11:50:00,
2013-09-06 06:52:00,62.4,60.7,30.13,North,0,0.0,0.0,94,0.00,,,0.00,Cumulus v1.9.3,2013-09-06 11:52:00,
2013-09-06 06:53:00,62.4,60.7,30.13,North,0,0.0,0.0,94,0.00,,,0.00,Cumulus v1.9.3,2013-09-06 11:53:00,
2013-09-06 06:54:00,62.4,60.7,30.13,North,0,0.0,0.0,94,0.00,,,0.00,Cumulus v1.9.3,2013-09-06 11:54:00,
2013-09-06 06:55:00,62.4,60.7,30.13,North,0,0.0,0.0,94,0.00,,,0.00,Cumulus v1.9.3,2013-09-06 11:55:00,
2013-09-06 06:59:00,62.4,60.7,30.13,North,0,0.0,0.0,94,0.00,,,0.00,Cumulus v1.9.3,2013-09-06 11:59:00,
2013-09-06 07:00:00,62.5,60.7,30.13,North,0,0.0,0.0,94,0.00,,,0.00,Cumulus v1.9.3,2013-09-06 12:00:00,
2013-09-06 07:01:00,62.5,60.7,30.13,North,0,0.0,1.0,94,0.00,,,0.00,Cumulus v1.9.3,2013-09-06 12:01:00,
2013-09-06 07:04:00,62.5,60.7,30.13,North,0,0.0,1.0,94,0.00,,,0.00,Cumulus v1.9.3,2013-09-06 12:04:00,
2013-09-06 07:05:00,62.5,60.7,30.13,North,0,0.0,1.0,94,0.00,,,0.00,Cumulus v1.9.3,2013-09-06 12:05:00,
2013-09-06 07:06:00,62.5,60.7,30.13,North,0,0.0,1.0,94,0.00,,,0.00,Cumulus v1.9.3,2013-09-06 12:06:00,
2013-09-06 07:10:00,62.6,60.8,30.14,North,0,0.0,3.0,94,0.00,,,0.00,Cumulus v1.9.3,2013-09-06 12:10:00,
2013-09-06 07:11:00,62.6,60.8,30.14,North,0,0.0,3.0,94,0.00,,,0.00,Cumulus v1.9.3,2013-09-06 12:11:00,
2013-09-06 07:12:00,62.7,60.9,30.14,North,0,0.0,3.0,94,0.00,,,0.00,Cumulus v1.9.3,2013-09-06 12:12:00,
2013-09-06 07:15:00,62.7,60.9,30.14,North,355,0.0,3.0,94,0.00,,,0.00,Cumulus v1.9.3,2013-09-06 12:15:00,
2013-09-06 07:16:00,62.7,60.9,30.14,North,355,0.0,3.0,94,0.00,,,0.00,Cumulus v1.9.3,2013-09-06 12:16:00,
2013-09-06 07:18:00,62.7,60.9,30.14,North,355,0.0,3.0,94,0.00,,,0.00,Cumulus v1.9.3,2013-09-06 12:18:00,
2013-09-06 07:20:00,62.8,61.0,30.14,North,355,1.0,3.0,94,0.00,,,0.00,Cumulus v1.9.3,2013-09-06 12:20:00,
2013-09-06 07:21:00,62.8,61.0,30.14,North,355,1.0,3.0,94,0.00,,,0.00,Cumulus v1.9.3,2013-09-06 12:21:00,
2013-09-06 07:23:00,62.8,61.0,30.14,North,355,1.0,3.0,94,0.00,,,0.00,Cumulus v1.9.3,2013-09-06 12:23:00,
2013-09-06 07:25:00,62.9,61.1,30.14,North,355,1.0,3.0,94,0.00,,,0.00,Cumulus v1.9.3,2013-09-06 12:25:00,
2013-09-06 07:26:00,62.9,61.1,30.14,North,355,1.0,3.0,94,0.00,,,0.00,Cumulus v1.9.3,2013-09-06 12:26:00,
2013-09-06 07:27:00,62.9,61.1,30.14,North,355,1.0,3.0,94,0.00,,,0.00,Cumulus v1.9.3,2013-09-06 12:27:00,
2013-09-06 07:28:00,63.0,61.2,30.14,North,355,1.0,3.0,94,0.00,,,0.00,Cumulus v1.9.3,2013-09-06 12:28:00,
2013-09-06 07:30:00,63.0,61.2,30.14,North,355,0.0,2.0,94,0.00,,,0.00,Cumulus v1.9.3,2013-09-06 12:30:00,
2013-09-06 07:31:00,63.0,61.2,30.14,North,355,0.0,2.0,94,0.00,,,0.00,Cumulus v1.9.3,2013-09-06 12:31:00,
2013-09-06 07:32:00,63.0,61.2,30.14,North,355,0.0,2.0,94,0.00,,,0.00,Cumulus v1.9.3,2013-09-06 12:32:00,
2013-09-06 07:33:00,63.1,61.3,30.14,North,355,0.0,2.0,94,0.00,,,0.00,Cumulus v1.9.3,2013-09-06 12:33:00,
2013-09-06 07:34:00,63.1,61.3,30.14,North,355,0.0,2.0,94,0.00,,,0.00,Cumulus v1.9.3,2013-09-06 12:34:00,
2013-09-06 07:35:00,63.1,61.3,30.14,North,0,0.0,2.0,94,0.00,,,0.00,Cumulus v1.9.3,2013-09-06 12:35:00,
2013-09-06 07:36:00,63.1,61.3,30.14,North,0,0.0,2.0,94,0.00,,,0.00,Cumulus v1.9.3,2013-09-06 12:36:00,
2013-09-06 07:37:00,63.1,61.3,30.14,North,0,0.0,2.0,94,0.00,,,0.00,Cumulus v1.9.3,2013-09-06 12:37:00,
2013-09-06 07:39:00,63.1,61.3,30.14,North,0,0.0,2.0,94,0.00,,,0.00,Cumulus v1.9.3,2013-09-06 12:39:00,
2013-09-06 07:40:00,63.2,61.4,30.14,North,0,0.0,2.0,94,0.00,,,0.00,Cumulus v1.9.3,2013-09-06 12:40:00,
2013-09-06 07:41:00,63.2,61.4,30.14,North,0,0.0,3.0,94,0.00,,,0.00,Cumulus v1.9.3,2013-09-06 12:41:00,
2013-09-06 07:42:00,63.2,61.4,30.14,North,0,0.0,3.0,94,0.00,,,0.00,Cumulus v1.9.3,2013-09-06 12:42:00,
2013-09-06 07:43:00,63.2,61.4,30.14,North,352,0.0,3.0,94,0.00,,,0.00,Cumulus v1.9.3,2013-09-06 12:43:00,
2013-09-06 07:44:00,63.2,61.4,30.14,North,351,0.0,3.0,94,0.00,,,0.00,Cumulus v1.9.3,2013-09-06 12:44:00,
2013-09-06 07:45:00,63.3,61.5,30.14,North,351,0.0,3.0,94,0.00,,,0.00,Cumulus v1.9.3,2013-09-06 12:45:00,
2013-09-06 07:46:00,63.3,61.5,30.14,North,350,0.0,3.0,94,0.00,,,0.00,Cumulus v1.9.3,2013-09-06 12:46:00,
2013-09-06 07:47:00,63.3,61.5,30.14,North,350,0.0,3.0,94,0.00,,,0.00,Cumulus v1.9.3,2013-09-06 12:47:00,
2013-09-06 07:49:00,63.4,61.6,30.14,North,357,1.0,4.0,94,0.00,,,0.00,Cumulus v1.9.3,2013-09-06 12:49:00,
2013-09-06 07:50:00,63.4,61.6,30.14,North,357,1.0,4.0,94,0.00,,,0.00,Cumulus v1.9.3,2013-09-06 12:50:00,
2013-09-06 07:51:00,63.4,61.6,30.14,North,358,1.0,4.0,94,0.00,,,0.00,Cumulus v1.9.3,2013-09-06 12:51:00,
2013-09-06 07:53:00,63.4,61.6,30.14,North,4,1.0,4.0,94,0.00,,,0.00,Cumulus v1.9.3,2013-09-06 12:53:00,
2013-09-06 07:54:00,63.5,61.7,30.14,North,4,1.0,4.0,94,0.00,,,0.00,Cumulus v1.9.3,2013-09-06 12:54:00,
2013-09-06 07:55:00,63.5,61.7,30.14,North,3,1.0,4.0,94,0.00,,,0.00,Cumulus v1.9.3,2013-09-06 12:55:00,
2013-09-06 07:56:00,63.5,61.7,30.14,North,3,1.0,4.0,94,0.00,,,0.00,Cumulus v1.9.3,2013-09-06 12:56:00,
2013-09-06 07:57:00,63.5,61.7,30.14,North,1,1.0,3.0,94,0.00,,,0.00,Cumulus v1.9.3,2013-09-06 12:57:00,
2013-09-06 07:59:00,63.5,61.7,30.14,North,357,1.0,3.0,94,0.00,,,0.00,Cumulus v1.9.3,2013-09-06 12:59:00,
2013-09-06 08:00:00,63.6,61.8,30.14,North,356,1.0,3.0,94,0.00,,,0.00,Cumulus v1.9.3,2013-09-06 13:00:00,
2013-09-06 08:01:00,63.6,61.8,30.14,North,355,1.0,3.0,94,0.00,,,0.00,Cumulus v1.9.3,2013-09-06 13:01:00,
2013-09-06 08:03:00,63.6,61.8,30.14,NNW,346,1.0,2.0,94,0.00,,,0.00,Cumulus v1.9.3,2013-09-06 13:03:00,
2013-09-06 08:04:00,63.6,61.8,30.14,NNW,346,1.0,2.0,94,0.00,,,0.00,Cumulus v1.9.3,2013-09-06 13:04:00,
2013-09-06 08:05:00,63.7,61.9,30.14,NNW,347,0.0,2.0,94,0.00,,,0.00,Cumulus v1.9.3,2013-09-06 13:05:00,
2013-09-06 08:06:00,63.7,61.9,30.14,NNW,347,0.0,2.0,94,0.00,,,0.00,Cumulus v1.9.3,2013-09-06 13:06:00,
2013-09-06 08:08:00,63.8,62.0,30.13,NNW,347,0.0,2.0,94,0.00,,,0.00,Cumulus v1.9.3,2013-09-06 13:08:00,
2013-09-06 08:10:00,63.8,62.0,30.14,NNW,347,0.0,1.0,94,0.00,,,0.00,Cumulus v1.9.3,2013-09-06 13:10:00,
2013-09-06 08:11:00,63.9,62.1,30.14,North,0,0.0,1.0,94,0.00,,,0.00,Cumulus v1.9.3,2013-09-06 13:11:00,
2013-09-06 08:12:00,63.9,62.1,30.14,North,0,0.0,1.0,94,0.00,,,0.00,Cumulus v1.9.3,2013-09-06 13:12:00,
2013-09-06 08:13:00,64.0,62.2,30.14,North,0,0.0,1.0,94,0.00,,,0.00,Cumulus v1.9.3,2013-09-06 13:13:00,
2013-09-06 08:15:00,64.0,62.2,30.14,North,0,0.0,1.0,94,0.00,,,0.00,Cumulus v1.9.3,2013-09-06 13:15:00,
2013-09-06 08:16:00,64.0,62.2,30.14,North,0,0.0,1.0,94,0.00,,,0.00,Cumulus v1.9.3,2013-09-06 13:16:00,
2013-09-06 08:17:00,64.1,62.3,30.14,North,0,0.0,1.0,94,0.00,,,0.00,Cumulus v1.9.3,2013-09-06 13:17:00,
2013-09-06 08:19:00,64.2,62.4,30.14,North,0,0.0,0.0,94,0.00,,,0.00,Cumulus v1.9.3,2013-09-06 13:19:00,
2013-09-06 08:20:00,64.2,62.4,30.14,North,0,0.0,0.0,94,0.00,,,0.00,Cumulus v1.9.3,2013-09-06 13:20:00,
2013-09-06 08:21:00,64.3,62.5,30.14,North,0,0.0,0.0,94,0.00,,,0.00,Cumulus v1.9.3,2013-09-06 13:21:00,
2013-09-06 08:22:00,64.4,62.6,30.14,North,0,0.0,0.0,94,0.00,,,0.00,Cumulus v1.9.3,2013-09-06 13:22:00,
2013-09-06 08:24:00,64.5,62.7,30.14,North,0,0.0,2.0,94,0.00,,,0.00,Cumulus v1.9.3,2013-09-06 13:24:00,
2013-09-06 08:25:00,64.6,62.8,30.14,North,0,0.0,2.0,94,0.00,,,0.00,Cumulus v1.9.3,2013-09-06 13:25:00,
2013-09-06 08:27:00,64.8,63.3,30.14,North,0,0.0,2.0,95,0.00,,,0.00,Cumulus v1.9.3,2013-09-06 13:27:00,
2013-09-06 08:28:00,64.9,63.4,30.14,North,0,0.0,2.0,95,0.00,,,0.00,Cumulus v1.9.3,2013-09-06 13:28:00,
2013-09-06 08:29:00,65.0,63.5,30.14,North,0,0.0,2.0,95,0.00,,,0.00,Cumulus v1.9.3,2013-09-06 13:29:00,
2013-09-06 08:31:00,65.1,63.3,30.14,North,0,0.0,2.0,94,0.00,,,0.00,Cumulus v1.9.3,2013-09-06 13:31:00,
2013-09-06 08:33:00,65.4,63.9,30.14,North,0,0.0,2.0,95,0.00,,,0.00,Cumulus v1.9.3,2013-09-06 13:33:00,
2013-09-06 08:35:00,65.6,64.1,30.14,North,0,0.0,2.0,95,0.00,,,0.00,Cumulus v1.9.3,2013-09-06 13:35:00,
2013-09-06 08:36:00,65.8,64.3,30.14,North,0,0.0,2.0,95,0.00,,,0.00,Cumulus v1.9.3,2013-09-06 13:36:00,
2013-09-06 08:38:00,66.1,64.6,30.14,North,0,0.0,1.0,95,0.00,,,0.00,Cumulus v1.9.3,2013-09-06 13:38:00,
2013-09-06 08:39:00,66.2,64.7,30.14,North,0,0.0,0.0,95,0.00,,,0.00,Cumulus v1.9.3,2013-09-06 13:39:00,
2013-09-06 08:40:00,66.2,64.7,30.14,North,0,0.0,0.0,95,0.00,,,0.00,Cumulus v1.9.3,2013-09-06 13:40:00,
2013-09-06 08:42:00,66.5,65.0,30.14,North,0,0.0,0.0,95,0.00,,,0.00,Cumulus v1.9.3,2013-09-06 13:42:00,
2013-09-06 08:43:00,66.7,65.2,30.14,North,0,0.0,0.0,95,0.00,,,0.00,Cumulus v1.9.3,2013-09-06 13:43:00,
2013-09-06 08:44:00,66.8,65.3,30.14,North,0,0.0,0.0,95,0.00,,,0.00,Cumulus v1.9.3,2013-09-06 13:44:00,
2013-09-06 08:45:00,66.9,65.4,30.14,North,0,0.0,0.0,95,0.00,,,0.00,Cumulus v1.9.3,2013-09-06 13:45:00,
2013-09-06 08:46:00,66.9,65.4,30.14,North,0,0.0,0.0,95,0.00,,,0.00,Cumulus v1.9.3,2013-09-06 13:46:00,
2013-09-06 08:47:00,67.0,65.5,30.14,North,0,0.0,0.0,95,0.00,,,0.00,Cumulus v1.9.3,2013-09-06 13:47:00,
2013-09-06 08:48:00,67.2,65.7,30.14,North,0,0.0,0.0,95,0.00,,,0.00,Cumulus v1.9.3,2013-09-06 13:48:00,
2013-09-06 08:50:00,67.3,65.8,30.14,North,0,0.0,0.0,95,0.00,,,0.00,Cumulus v1.9.3,2013-09-06 13:50:00,
2013-09-06 08:52:00,67.6,66.1,30.14,North,0,0.0,0.0,95,0.00,,,0.00,Cumulus v1.9.3,2013-09-06 13:52:00,
2013-09-06 08:54:00,67.7,66.2,30.15,North,0,0.0,0.0,95,0.00,,,0.00,Cumulus v1.9.3,2013-09-06 13:54:00,
2013-09-06 08:56:00,68.1,66.6,30.14,North,0,0.0,0.0,95,0.00,,,0.00,Cumulus v1.9.3,2013-09-06 13:56:00,
2013-09-06 08:57:00,68.3,66.8,30.15,North,0,0.0,0.0,95,0.00,,,0.00,Cumulus v1.9.3,2013-09-06 13:57:00,
2013-09-06 08:58:00,68.3,66.5,30.15,North,0,0.0,0.0,94,0.00,,,0.00,Cumulus v1.9.3,2013-09-06 13:58:00,
2013-09-06 08:59:00,68.5,66.7,30.15,North,0,0.0,0.0,94,0.00,,,0.00,Cumulus v1.9.3,2013-09-06 13:59:00,
2013-09-06 09:00:00,68.6,67.1,30.15,North,0,0.0,1.0,95,0.00,,,0.00,Cumulus v1.9.3,2013-09-06 14:00:00,
2013-09-06 09:02:00,68.9,67.4,30.15,North,0,0.0,1.0,95,0.00,,,0.00,Cumulus v1.9.3,2013-09-06 14:02:00,
2013-09-06 09:03:00,69.0,67.2,30.15,North,0,0.0,1.0,94,0.00,,,0.00,Cumulus v1.9.3,2013-09-06 14:03:00,
2013-09-06 09:04:00,69.1,67.3,30.15,North,0,0.0,1.0,94,0.00,,,0.00,Cumulus v1.9.3,2013-09-06 14:04:00,
2013-09-06 09:05:00,69.2,67.4,30.15,North,0,0.0,1.0,94,0.00,,,0.00,Cumulus v1.9.3,2013-09-06 14:05:00,
2013-09-06 09:07:00,69.4,67.6,30.15,North,0,0.0,1.0,94,0.00,,,0.00,Cumulus v1.9.3,2013-09-06 14:07:00,
2013-09-06 09:08:00,69.5,67.7,30.15,North,0,0.0,1.0,94,0.00,,,0.00,Cumulus v1.9.3,2013-09-06 14:08:00,
2013-09-06 09:10:00,69.6,67.8,30.15,North,0,0.0,2.0,94,0.00,,,0.00,Cumulus v1.9.3,2013-09-06 14:10:00,
2013-09-06 09:13:00,69.9,68.1,30.15,North,0,0.0,2.0,94,0.00,,,0.00,Cumulus v1.9.3,2013-09-06 14:13:00,
2013-09-06 09:16:00,70.2,68.1,30.15,North,0,0.0,3.0,93,0.00,,,0.00,Cumulus v1.9.3,2013-09-06 14:16:00,
2013-09-06 09:17:00,70.3,68.2,30.15,North,0,0.0,3.0,93,0.00,,,0.00,Cumulus v1.9.3,2013-09-06 14:17:00,
2013-09-06 09:18:00,70.5,68.4,30.15,North,0,0.0,3.0,93,0.00,,,0.00,Cumulus v1.9.3,2013-09-06 14:18:00,
2013-09-06 09:19:00,70.5,68.4,30.15,North,0,0.0,3.0,93,0.00,,,0.00,Cumulus v1.9.3,2013-09-06 14:19:00,
2013-09-06 09:21:00,70.8,68.0,30.15,North,0,0.0,3.0,91,0.00,,,0.00,Cumulus v1.9.3,2013-09-06 14:21:00,
2013-09-06 09:22:00,70.8,68.0,30.15,North,0,0.0,3.0,91,0.00,,,0.00,Cumulus v1.9.3,2013-09-06 14:22:00,
2013-09-06 09:23:00,70.9,68.1,30.15,North,0,0.0,3.0,91,0.00,,,0.00,Cumulus v1.9.3,2013-09-06 14:23:00,
2013-09-06 09:24:00,71.0,67.9,30.15,North,0,0.0,3.0,90,0.00,,,0.00,Cumulus v1.9.3,2013-09-06 14:24:00,
2013-09-06 09:27:00,71.2,67.8,30.15,North,0,0.0,2.0,89,0.00,,,0.00,Cumulus v1.9.3,2013-09-06 14:27:00,
2013-09-06 09:28:00,71.4,68.0,30.15,North,0,0.0,2.0,89,0.00,,,0.00,Cumulus v1.9.3,2013-09-06 14:28:00,
2013-09-06 09:29:00,71.4,68.0,30.15,North,0,0.0,2.0,89,0.00,,,0.00,Cumulus v1.9.3,2013-09-06 14:29:00,
2013-09-06 09:30:00,71.5,67.8,30.15,North,0,0.0,2.0,88,0.00,,,0.00,Cumulus v1.9.3,2013-09-06 14:30:00,
2013-09-06 09:32:00,71.7,67.6,30.15,North,0,0.0,2.0,87,0.00,,,0.00,Cumulus v1.9.3,2013-09-06 14:32:00,
2013-09-06 09:33:00,71.8,67.7,30.15,North,0,0.0,2.0,87,0.00,,,0.00,Cumulus v1.9.3,2013-09-06 14:33:00,
2013-09-06 09:35:00,72.0,67.6,30.16,North,0,0.0,1.0,86,0.00,,,0.00,Cumulus v1.9.3,2013-09-06 14:35:00,
2013-09-06 09:37:00,72.1,67.7,30.16,North,0,0.0,1.0,86,0.00,,,0.00,Cumulus v1.9.3,2013-09-06 14:37:00,
2013-09-06 09:38:00,72.2,67.8,30.16,North,0,0.0,1.0,86,0.00,,,0.00,Cumulus v1.9.3,2013-09-06 14:38:00,
2013-09-06 09:39:00,72.3,67.9,30.16,North,0,0.0,1.0,86,0.00,,,0.00,Cumulus v1.9.3,2013-09-06 14:39:00,
2013-09-06 09:40:00,72.3,67.9,30.16,North,0,0.0,1.0,86,0.00,,,0.00,Cumulus v1.9.3,2013-09-06 14:40:00,
2013-09-06 09:41:00,72.5,67.7,30.16,North,0,0.0,1.0,85,0.00,,,0.00,Cumulus v1.9.3,2013-09-06 14:41:00,
2013-09-06 09:43:00,72.5,67.4,30.16,North,0,0.0,1.0,84,0.00,,,0.00,Cumulus v1.9.3,2013-09-06 14:43:00,
2013-09-06 09:44:00,72.6,67.5,30.16,North,0,0.0,1.0,84,0.00,,,0.00,Cumulus v1.9.3,2013-09-06 14:44:00,
2013-09-06 09:45:00,72.6,67.5,30.16,North,0,0.0,1.0,84,0.00,,,0.00,Cumulus v1.9.3,2013-09-06 14:45:00,
2013-09-06 09:46:00,72.6,67.5,30.16,North,0,0.0,1.0,84,0.00,,,0.00,Cumulus v1.9.3,2013-09-06 14:46:00,
2013-09-06 09:48:00,72.8,67.3,30.15,North,0,0.0,1.0,83,0.00,,,0.00,Cumulus v1.9.3,2013-09-06 14:48:00,
2013-09-06 09:50:00,72.8,67.3,30.16,North,0,0.0,1.0,83,0.00,,,0.00,Cumulus v1.9.3,2013-09-06 14:50:00,
2013-09-06 09:51:00,72.9,67.4,30.16,North,0,0.0,1.0,83,0.00,,,0.00,Cumulus v1.9.3,2013-09-06 14:51:00,
2013-09-06 09:52:00,72.9,67.4,30.16,North,0,0.0,1.0,83,0.00,,,0.00,Cumulus v1.9.3,2013-09-06 14:52:00,
2013-09-06 09:54:00,73.0,67.5,30.15,North,0,0.0,1.0,83,0.00,,,0.00,Cumulus v1.9.3,2013-09-06 14:54:00,
2013-09-06 09:56:00,73.1,67.6,30.15,North,0,0.0,0.0,83,0.00,,,0.00,Cumulus v1.9.3,2013-09-06 14:56:00,
2013-09-06 09:57:00,73.1,67.6,30.15,North,0,0.0,0.0,83,0.00,,,0.00,Cumulus v1.9.3,2013-09-06 14:57:00,
2013-09-06 09:59:00,73.2,67.4,30.15,North,0,0.0,0.0,82,0.00,,,0.00,Cumulus v1.9.3,2013-09-06 14:59:00,
2013-09-06 10:00:00,65.5,64.0,30.15,NNW,338,0.0,2.0,95,0.00,,SKC,0.00,VWS V14.01,2013-09-06 15:00:00,
2013-09-06 10:01:00,73.3,67.5,30.15,North,0,0.0,1.0,82,0.00,,,0.00,Cumulus v1.9.3,2013-09-06 15:01:00,
2013-09-06 10:02:00,73.3,67.5,30.15,North,0,0.0,1.0,82,0.00,,,0.00,Cumulus v1.9.3,2013-09-06 15:02:00,
2013-09-06 10:03:00,73.4,67.6,30.15,North,0,0.0,1.0,82,0.00,,,0.00,Cumulus v1.9.3,2013-09-06 15:03:00,
2013-09-06 10:04:00,73.4,67.6,30.16,North,0,0.0,1.0,82,0.00,,,0.00,Cumulus v1.9.3,2013-09-06 15:04:00,
2013-09-06 10:08:00,73.7,68.2,30.15,ESE,104,0.0,0.0,83,0.00,,SKC,0.00,VWS V14.01,2013-09-06 15:08:00,
2013-09-06 10:13:00,74.0,68.2,30.15,ESE,104,0.0,0.0,82,0.00,,SKC,0.00,VWS V14.01,2013-09-06 15:13:00,
2013-09-06 10:18:00,74.2,68.4,30.16,ESE,107,0.0,0.0,82,0.00,,SKC,0.00,VWS V14.01,2013-09-06 15:18:00,
2013-09-06 10:23:00,74.4,67.8,30.15,East,98,0.0,0.0,80,0.00,,SKC,0.00,VWS V14.01,2013-09-06 15:23:00,
2013-09-06 10:28:00,74.7,67.8,30.15,East,98,0.0,0.0,79,0.00,,SKC,0.00,VWS V14.01,2013-09-06 15:28:00,
2013-09-06 10:33:00,75.1,68.5,30.15,ESE,103,0.0,0.0,80,0.00,,SKC,0.00,VWS V14.01,2013-09-06 15:33:00,
2013-09-06 10:38:00,75.5,68.5,30.15,ESE,103,0.0,0.0,79,0.00,,SKC,0.00,VWS V14.01,2013-09-06 15:38:00,
2013-09-06 10:43:00,76.0,68.7,30.15,ESE,104,0.0,0.0,78,0.00,,SKC,0.00,VWS V14.01,2013-09-06 15:43:00,
2013-09-06 10:48:00,76.5,69.1,30.15,SE,136,0.0,0.0,78,0.00,,SKC,0.00,VWS V14.01,2013-09-06 15:48:00,
2013-09-06 10:53:00,76.9,68.8,30.15,SSW,196,0.0,2.0,76,0.00,,SKC,0.00,VWS V14.01,2013-09-06 15:53:00,
2013-09-06 10:58:00,77.3,68.8,30.15,SE,142,0.0,3.0,75,0.00,,SKC,0.00,VWS V14.01,2013-09-06 15:58:00,
2013-09-06 11:03:00,77.6,68.3,30.15,SE,126,0.0,2.0,73,0.00,,SKC,0.00,VWS V14.01,2013-09-06 16:03:00,
2013-09-06 11:08:00,78.0,67.4,30.15,SSE,153,0.0,4.0,70,0.00,,SKC,0.00,VWS V14.01,2013-09-06 16:08:00,
2013-09-06 11:13:00,78.4,67.8,30.15,SSE,153,4.0,6.0,70,0.00,,SKC,0.00,VWS V14.01,2013-09-06 16:13:00,
2013-09-06 11:18:00,78.8,68.2,30.15,SE,144,2.0,2.0,70,0.00,,SKC,0.00,VWS V14.01,2013-09-06 16:18:00,
2013-09-06 11:23:00,79.3,67.4,30.15,SSE,153,1.0,5.0,67,0.00,,SKC,0.00,VWS V14.01,2013-09-06 16:23:00,
2013-09-06 11:28:00,79.7,67.8,30.15,SE,128,0.0,4.0,67,0.00,,SKC,0.00,VWS V14.01,2013-09-06 16:28:00,
2013-09-06 11:33:00,80.0,68.1,30.15,SE,126,1.0,4.0,67,0.00,,SKC,0.00,VWS V14.01,2013-09-06 16:33:00,
2013-09-06 11:38:00,80.3,67.5,30.15,SE,144,0.0,6.0,65,0.00,,SKC,0.00,VWS V14.01,2013-09-06 16:38:00,
2013-09-06 11:43:00,80.8,67.9,30.15,SSW,212,0.0,3.0,65,0.00,,SKC,0.00,VWS V14.01,2013-09-06 16:43:00,
2013-09-06 11:48:00,81.2,68.8,30.15,South,169,3.0,4.0,66,0.00,,SKC,0.00,VWS V14.01,2013-09-06 16:48:00,
2013-09-06 11:53:00,81.6,67.8,30.14,SSW,207,0.0,1.0,63,0.00,,SKC,0.00,VWS V14.01,2013-09-06 16:53:00,
2013-09-06 11:58:00,81.9,68.1,30.14,SSE,155,0.0,3.0,63,0.00,,SKC,0.00,VWS V14.01,2013-09-06 16:58:00,
2013-09-06 12:00:00,79.8,66.1,30.14,SSE,156,1.0,7.0,63,0.00,,,0.00,Cumulus v1.9.3,2013-09-06 17:00:00,
2013-09-06 12:03:00,82.1,67.8,30.14,SSE,154,1.0,4.0,62,0.00,,SKC,0.00,VWS V14.01,2013-09-06 17:03:00,
2013-09-06 12:08:00,82.5,69.1,30.14,ESE,119,0.0,2.0,64,0.00,,SKC,0.00,VWS V14.01,2013-09-06 17:08:00,
2013-09-06 12:13:00,82.8,68.0,30.13,South,184,0.0,3.0,61,0.00,,SKC,0.00,VWS V14.01,2013-09-06 17:13:00,
2013-09-06 12:18:00,83.2,68.4,30.13,SW,215,1.0,3.0,61,0.00,,SKC,0.00,VWS V14.01,2013-09-06 17:18:00,
2013-09-06 12:23:00,83.2,67.4,30.13,South,169,1.0,2.0,59,0.00,,SKC,0.00,VWS V14.01,2013-09-06 17:23:00,
2013-09-06 12:28:00,83.3,68.5,30.13,South,169,0.0,0.0,61,0.00,,SKC,0.00,VWS V14.01,2013-09-06 17:28:00,
2013-09-06 12:33:00,83.1,68.7,30.13,South,186,0.0,2.0,62,0.00,,SKC,0.00,VWS V14.01,2013-09-06 17:33:00,
2013-09-06 12:38:00,83.0,67.7,30.13,SW,231,0.0,2.0,60,0.00,,SKC,0.00,VWS V14.01,2013-09-06 17:38:00,
2013-09-06 12:43:00,82.9,69.0,30.13,South,176,2.0,3.0,63,0.00,,SKC,0.00,VWS V14.01,2013-09-06 17:43:00,
2013-09-06 12:48:00,83.3,69.9,30.12,South,184,0.0,3.0,64,0.00,,SKC,0.00,VWS V14.01,2013-09-06 17:48:00,
2013-09-06 12:53:00,84.1,68.2,30.12,SSE,165,2.0,3.0,59,0.00,,SKC,0.00,VWS V14.01,2013-09-06 17:53:00,
2013-09-06 12:58:00,84.4,69.0,30.12,South,186,3.0,5.0,60,0.00,,SKC,0.00,VWS V14.01,2013-09-06 17:58:00,
2013-09-06 13:00:00,83.2,66.9,30.12,South,181,1.0,7.0,58,0.00,,,0.00,Cumulus v1.9.3,2013-09-06 18:00:00,
2013-09-06 13:03:00,84.5,68.6,30.12,SSE,162,2.0,4.0,59,0.00,,SKC,0.00,VWS V14.01,2013-09-06 18:03:00,
2013-09-06 13:08:00,84.6,67.7,30.12,ESE,112,0.0,2.0,57,0.00,,SKC,0.00,VWS V14.01,2013-09-06 18:08:00,
2013-09-06 13:13:00,84.0,66.1,30.11,SE,127,1.0,2.0,55,0.00,,SKC,0.00,VWS V14.01,2013-09-06 18:13:00,
2013-09-06 13:18:00,83.9,67.6,30.11,SE,140,5.0,6.0,58,0.00,,SKC,0.00,VWS V14.01,2013-09-06 18:18:00,
2013-09-06 13:23:00,84.2,68.3,30.11,SE,140,2.0,2.0,59,0.00,,SKC,0.00,VWS V14.01,2013-09-06 18:23:00,
2013-09-06 13:28:00,84.6,68.7,30.11,SE,140,0.0,4.0,59,0.00,,SKC,0.00,VWS V14.01,2013-09-06 18:28:00,
2013-09-06 13:33:00,84.9,66.9,30.11,South,176,6.0,6.0,55,0.00,,SKC,0.00,VWS V14.01,2013-09-06 18:33:00,
2013-09-06 13:38:00,85.0,67.6,30.11,SW,219,0.0,2.0,56,0.00,,SKC,0.00,VWS V14.01,2013-09-06 18:38:00,
2013-09-06 13:43:00,84.9,68.0,30.11,SSW,194,1.0,5.0,57,0.00,,SKC,0.00,VWS V14.01,2013-09-06 18:43:00,
2013-09-06 13:48:00,84.6,68.2,30.10,SSE,154,1.0,3.0,58,0.00,,SKC,0.00,VWS V14.01,2013-09-06 18:48:00,
2013-09-06 13:53:00,84.4,68.0,30.10,SE,137,1.0,7.0,58,0.00,,SKC,0.00,VWS V14.01,2013-09-06 18:53:00,
2013-09-06 13:58:00,84.0,66.6,30.10,SE,130,1.0,4.0,56,0.00,,SKC,0.00,VWS V14.01,2013-09-06 18:58:00,
2013-09-06 14:00:00,84.5,68.1,30.10,SE,135,1.0,7.0,58,0.00,,,0.00,Cumulus v1.9.3,2013-09-06 19:00:00,
2013-09-06 14:03:00,83.8,68.0,30.10,SE,128,0.0,5.0,59,0.00,,SKC,0.00,VWS V14.01,2013-09-06 19:03:00,
2013-09-06 14:08:00,83.5,67.2,30.10,ESE,119,0.0,3.0,58,0.00,,SKC,0.00,VWS V14.01,2013-09-06 19:08:00,
2013-09-06 14:13:00,83.1,66.8,30.10,NE,48,1.0,4.0,58,0.00,,SKC,0.00,VWS V14.01,2013-09-06 19:13:00,
2013-09-06 14:18:00,83.1,66.8,30.10,South,180,3.0,4.0,58,0.00,,SKC,0.00,VWS V14.01,2013-09-06 19:18:00,
2013-09-06 14:23:00,83.2,67.9,30.09,South,178,1.0,6.0,60,0.00,,SKC,0.00,VWS V14.01,2013-09-06 19:23:00,
2013-09-06 14:28:00,83.5,68.2,30.09,SSW,194,0.0,2.0,60,0.00,,SKC,0.00,VWS V14.01,2013-09-06 19:28:00,
2013-09-06 14:32:00,83.8,68.4,30.09,WSW,248,1.0,4.0,60,0.00,,SKC,0.00,VWS V14.01,2013-09-06 19:32:00,
2013-09-06 14:37:00,84.0,67.7,30.08,South,175,2.0,4.0,58,0.00,,SKC,0.00,VWS V14.01,2013-09-06 19:37:00,
2013-09-06 14:42:00,84.0,65.6,30.08,SSE,150,1.0,4.0,54,0.00,,SKC,0.00,VWS V14.01,2013-09-06 19:42:00,
2013-09-06 14:47:00,84.3,66.4,30.08,South,180,1.0,1.0,55,0.00,,SKC,0.00,VWS V14.01,2013-09-06 19:47:00,
2013-09-06 14:52:00,84.7,67.3,30.08,South,185,0.0,3.0,56,0.00,,SKC,0.00,VWS V14.01,2013-09-06 19:52:00,
2013-09-06 14:57:00,85.0,66.0,30.08,South,182,0.0,0.0,53,0.00,,SKC,0.00,VWS V14.01,2013-09-06 19:57:00,
2013-09-06 15:00:00,83.9,65.5,30.08,South,181,1.0,7.0,54,0.00,,,0.00,Cumulus v1.9.3,2013-09-06 20:00:00,
2013-09-06 15:02:00,85.4,67.4,30.08,SSW,196,0.0,0.0,55,0.00,,SKC,0.00,VWS V14.01,2013-09-06 20:02:00,
2013-09-06 15:07:00,85.7,68.2,30.07,SSE,152,1.0,5.0,56,0.00,,SKC,0.00,VWS V14.01,2013-09-06 20:07:00,
2013-09-06 15:12:00,85.5,66.4,30.07,South,191,3.0,3.0,53,0.00,,SKC,0.00,VWS V14.01,2013-09-06 20:12:00,
2013-09-06 15:17:00,85.5,67.5,30.07,South,178,1.0,4.0,55,0.00,,SKC,0.00,VWS V14.01,2013-09-06 20:17:00,
2013-09-06 15:22:00,85.3,66.8,30.07,SSW,212,0.0,2.0,54,0.00,,SKC,0.00,VWS V14.01,2013-09-06 20:22:00,
2013-09-06 15:27:00,85.4,67.4,30.07,South,177,1.0,2.0,55,0.00,,SKC,0.00,VWS V14.01,2013-09-06 20:27:00,
2013-09-06 15:32:00,85.0,66.0,30.07,SW,214,0.0,2.0,53,0.00,,SKC,0.00,VWS V14.01,2013-09-06 20:32:00,
2013-09-06 15:37:00,85.0,66.0,30.06,SSE,157,2.0,2.0,53,0.00,,SKC,0.00,VWS V14.01,2013-09-06 20:37:00,
2013-09-06 15:42:00,85.1,65.0,30.06,SSE,168,0.0,4.0,51,0.00,,SKC,0.00,VWS V14.01,2013-09-06 20:42:00,
2013-09-06 15:47:00,85.0,66.0,30.06,South,172,0.0,6.0,53,0.00,,SKC,0.00,VWS V14.01,2013-09-06 20:47:00,
2013-09-06 15:52:00,85.1,66.6,30.06,South,172,3.0,3.0,54,0.00,,SKC,0.00,VWS V14.01,2013-09-06 20:52:00,
2013-09-06 15:57:00,84.8,66.3,30.06,SE,143,0.0,0.0,54,0.00,,SKC,0.00,VWS V14.01,2013-09-06 20:57:00,
2013-09-06 16:00:00,85.2,67.2,30.06,SSE,156,1.0,8.0,55,0.00,,,0.00,Cumulus v1.9.3,2013-09-06 21:00:00,
2013-09-06 16:02:00,84.7,66.2,30.06,SW,221,0.0,4.0,54,0.00,,SKC,0.00,VWS V14.01,2013-09-06 21:02:00,
2013-09-06 16:07:00,84.6,66.1,30.06,SW,227,1.0,6.0,54,0.00,,SKC,0.00,VWS V14.01,2013-09-06 21:07:00,
2013-09-06 16:12:00,84.2,65.8,30.06,SSW,204,0.0,2.0,54,0.00,,SKC,0.00,VWS V14.01,2013-09-06 21:12:00,
2013-09-06 16:17:00,84.2,65.2,30.06,West,262,0.0,0.0,53,0.00,,SKC,0.00,VWS V14.01,2013-09-06 21:17:00,
2013-09-06 16:22:00,84.2,65.2,30.06,SW,215,1.0,6.0,53,0.00,,SKC,0.00,VWS V14.01,2013-09-06 21:22:00,
2013-09-06 16:27:00,84.0,65.1,30.06,SW,215,4.0,4.0,53,0.00,,SKC,0.00,VWS V14.01,2013-09-06 21:27:00,
2013-09-06 16:32:00,83.7,64.8,30.05,SSW,200,2.0,2.0,53,0.00,,SKC,0.00,VWS V14.01,2013-09-06 21:32:00,
2013-09-06 16:37:00,83.5,65.7,30.05,SSW,193,1.0,2.0,55,0.00,,SKC,0.00,VWS V14.01,2013-09-06 21:37:00,
2013-09-06 16:42:00,83.3,65.5,30.05,South,186,0.0,4.0,55,0.00,,SKC,0.00,VWS V14.01,2013-09-06 21:42:00,
2013-09-06 16:47:00,83.1,65.3,30.05,South,185,2.0,2.0,55,0.00,,SKC,0.00,VWS V14.01,2013-09-06 21:47:00,
2013-09-06 16:52:00,83.0,65.2,30.05,SSE,163,0.0,2.0,55,0.00,,SKC,0.00,VWS V14.01,2013-09-06 21:52:00,
2013-09-06 16:57:00,82.9,65.1,30.05,SSE,159,0.0,2.0,55,0.00,,SKC,0.00,VWS V14.01,2013-09-06 21:57:00,
2013-09-06 17:00:00,83.8,66.9,30.05,South,181,1.0,6.0,57,0.00,,,0.00,Cumulus v1.9.3,2013-09-06 22:00:00,
2013-09-06 17:02:00,83.1,65.8,30.05,South,188,0.0,3.0,56,0.00,,SKC,0.00,VWS V14.01,2013-09-06 22:02:00,
2013-09-06 17:07:00,83.2,66.4,30.05,SW,223,2.0,3.0,57,0.00,,SKC,0.00,VWS V14.01,2013-09-06 22:07:00,
2013-09-06 17:12:00,83.3,66.5,30.05,SSW,205,1.0,3.0,57,0.00,,SKC,0.00,VWS V14.01,2013-09-06 22:12:00,
2013-09-06 17:17:00,83.4,66.6,30.05,SSW,211,0.0,1.0,57,0.00,,SKC,0.00,VWS V14.01,2013-09-06 22:17:00,
2013-09-06 17:22:00,83.5,67.2,30.05,South,184,2.0,2.0,58,0.00,,SKC,0.00,VWS V14.01,2013-09-06 22:22:00,
2013-09-06 17:27:00,83.5,65.7,30.05,SSW,193,0.0,2.0,55,0.00,,SKC,0.00,VWS V14.01,2013-09-06 22:27:00,
2013-09-06 17:32:00,83.6,66.3,30.05,South,170,0.0,3.0,56,0.00,,SKC,0.00,VWS V14.01,2013-09-06 22:32:00,
2013-09-06 17:37:00,83.7,67.4,30.05,South,190,0.0,3.0,58,0.00,,SKC,0.00,VWS V14.01,2013-09-06 22:37:00,
2013-09-06 17:42:00,83.3,67.5,30.05,South,173,2.0,2.0,59,0.00,,SKC,0.00,VWS V14.01,2013-09-06 22:42:00,
2013-09-06 17:47:00,83.1,67.3,30.05,SSW,208,3.0,3.0,59,0.00,,SKC,0.00,VWS V14.01,2013-09-06 22:47:00,
2013-09-06 17:52:00,82.9,67.6,30.05,South,186,0.0,2.0,60,0.00,,SKC,0.00,VWS V14.01,2013-09-06 22:52:00,
2013-09-06 17:57:00,82.9,69.0,30.04,South,184,0.0,3.0,63,0.00,,SKC,0.00,VWS V14.01,2013-09-06 22:57:00,
2013-09-06 18:00:00,83.3,69.8,30.04,South,181,1.0,4.0,64,0.00,,,0.00,Cumulus v1.9.3,2013-09-06 23:00:00,
2013-09-06 18:02:00,83.0,68.2,30.04,SSW,209,1.0,3.0,61,0.00,,SKC,0.00,VWS V14.01,2013-09-06 23:02:00,
2013-09-06 18:07:00,83.0,68.2,30.04,SSW,207,0.0,1.0,61,0.00,,SKC,0.00,VWS V14.01,2013-09-06 23:07:00,
2013-09-06 18:12:00,83.0,69.6,30.04,SSE,164,0.0,1.0,64,0.00,,SKC,0.00,VWS V14.01,2013-09-06 23:12:00,
2013-09-06 18:17:00,82.9,69.5,30.04,South,188,1.0,1.0,64,0.00,,SKC,0.00,VWS V14.01,2013-09-06 23:17:00,
2013-09-06 18:22:00,82.6,69.7,30.04,South,188,0.0,1.0,65,0.00,,SKC,0.00,VWS V14.01,2013-09-06 23:22:00,
2013-09-06 18:27:00,82.4,69.5,30.04,SSW,193,0.0,2.0,65,0.00,,SKC,0.00,VWS V14.01,2013-09-06 23:27:00,
2013-09-06 18:32:00,81.9,69.4,30.04,SSW,194,0.0,0.0,66,0.00,,SKC,0.00,VWS V14.01,2013-09-06 23:32:00,
2013-09-06 18:37:00,81.5,69.9,30.04,SSW,202,0.0,1.0,68,0.00,,SKC,0.00,VWS V14.01,2013-09-06 23:37:00,
2013-09-06 18:42:00,81.4,70.7,30.04,SSW,202,0.0,0.0,70,0.00,,SKC,0.00,VWS V14.01,2013-09-06 23:42:00,
2013-09-06 18:47:00,81.0,69.9,30.04,SSW,202,0.0,1.0,69,0.00,,SKC,0.00,VWS V14.01,2013-09-06 23:47:00,
2013-09-06 18:52:00,80.6,69.5,30.04,SSW,202,0.0,0.0,69,0.00,,SKC,0.00,VWS V14.01,2013-09-06 23:52:00,
2013-09-06 18:57:00,80.0,69.3,30.04,SSW,202,0.0,0.0,70,0.00,,SKC,0.00,VWS V14.01,2013-09-06 23:57:00,
2013-09-06 19:00:00,81.9,71.2,30.04,North,0,0.0,3.0,70,0.00,,,0.00,Cumulus v1.9.3,2013-09-07 00:00:00,
2013-09-06 19:02:00,79.1,69.3,30.04,SSW,202,0.0,0.0,72,0.00,,SKC,0.00,VWS V14.01,2013-09-07 00:02:00,
2013-09-06 19:07:00,78.3,69.3,30.03,SSW,202,0.0,0.0,74,0.00,,SKC,0.00,VWS V14.01,2013-09-07 00:07:00,
2013-09-06 19:12:00,77.5,69.0,30.04,SSW,202,0.0,0.0,75,0.00,,SKC,0.00,VWS V14.01,2013-09-07 00:12:00,
2013-09-06 19:17:00,76.8,68.7,30.03,SSW,202,0.0,0.0,76,0.00,,SKC,0.00,VWS V14.01,2013-09-07 00:17:00,
2013-09-06 19:22:00,76.3,68.6,30.03,SSW,202,0.0,0.0,77,0.00,,SKC,0.00,VWS V14.01,2013-09-07 00:22:00,
2013-09-06 19:27:00,75.9,67.8,30.03,SSW,202,0.0,0.0,76,0.00,,SKC,0.00,VWS V14.01,2013-09-07 00:27:00,
2013-09-06 19:32:00,75.6,68.3,30.03,SSW,202,0.0,0.0,78,0.00,,SKC,0.00,VWS V14.01,2013-09-07 00:32:00,
2013-09-06 19:37:00,75.3,67.6,30.03,SSW,202,0.0,0.0,77,0.00,,SKC,0.00,VWS V14.01,2013-09-07 00:37:00,
2013-09-06 19:43:00,74.8,67.9,30.03,SSW,202,0.0,0.0,79,0.00,,SKC,0.00,VWS V14.01,2013-09-07 00:43:00,
2013-09-06 19:48:00,74.3,67.4,30.03,SSW,202,0.0,0.0,79,0.00,,SKC,0.00,VWS V14.01,2013-09-07 00:48:00,
2013-09-06 19:53:00,73.8,67.2,30.03,SSW,202,0.0,0.0,80,0.00,,SKC,0.00,VWS V14.01,2013-09-07 00:53:00,
2013-09-06 19:58:00,73.3,67.1,30.03,SSW,202,0.0,0.0,81,0.00,,SKC,0.00,VWS V14.01,2013-09-07 00:58:00,
2013-09-06 20:00:00,75.9,69.6,30.03,North,0,0.0,0.0,81,0.00,,,0.00,Cumulus v1.9.3,2013-09-07 01:00:00,
2013-09-06 20:03:00,72.7,66.9,30.04,SSW,202,0.0,0.0,82,0.00,,SKC,0.00,VWS V14.01,2013-09-07 01:03:00,
2013-09-06 20:08:00,72.3,66.8,30.04,SSW,202,0.0,0.0,83,0.00,,SKC,0.00,VWS V14.01,2013-09-07 01:08:00,
2013-09-06 20:13:00,72.0,66.6,30.03,SSW,202,0.0,0.0,83,0.00,,SKC,0.00,VWS V14.01,2013-09-07 01:13:00,
2013-09-06 20:18:00,71.8,66.7,30.04,SSW,202,0.0,0.0,84,0.00,,SKC,0.00,VWS V14.01,2013-09-07 01:18:00,
2013-09-06 20:23:00,71.6,66.5,30.04,SSW,202,0.0,0.0,84,0.00,,SKC,0.00,VWS V14.01,2013-09-07 01:23:00,
2013-09-06 20:28:00,71.4,66.3,30.04,SSW,202,0.0,0.0,84,0.00,,SKC,0.00,VWS V14.01,2013-09-07 01:28:00,
2013-09-06 20:33:00,71.3,66.6,30.04,SSW,202,0.0,0.0,85,0.00,,SKC,0.00,VWS V14.01,2013-09-07 01:33:00,
2013-09-06 20:38:00,71.1,66.4,30.04,SSW,202,0.0,0.0,85,0.00,,SKC,0.00,VWS V14.01,2013-09-07 01:38:00,
2013-09-06 20:43:00,70.8,66.1,30.04,SSW,202,0.0,0.0,85,0.00,,SKC,0.00,VWS V14.01,2013-09-07 01:43:00,
2013-09-06 20:48:00,70.7,66.3,30.04,SSW,202,0.0,0.0,86,0.00,,SKC,0.00,VWS V14.01,2013-09-07 01:48:00,
2013-09-06 20:54:00,70.5,66.4,30.03,SSW,202,0.0,0.0,87,0.00,,SKC,0.00,VWS V14.01,2013-09-07 01:54:00,
2013-09-06 20:58:00,70.2,66.2,30.04,SSW,202,0.0,0.0,87,0.00,,SKC,0.00,VWS V14.01,2013-09-07 01:58:00,
2013-09-06 21:00:00,71.4,67.3,30.04,North,0,0.0,0.0,87,0.00,,,0.00,Cumulus v1.9.3,2013-09-07 02:00:00,
2013-09-06 21:04:00,70.0,66.3,30.04,SSW,202,0.0,0.0,88,0.00,,SKC,0.00,VWS V14.01,2013-09-07 02:04:00,
2013-09-06 21:09:00,69.8,66.1,30.04,SSW,202,0.0,0.0,88,0.00,,SKC,0.00,VWS V14.01,2013-09-07 02:09:00,
2013-09-06 21:14:00,69.6,65.9,30.04,SSW,202,0.0,0.0,88,0.00,,SKC,0.00,VWS V14.01,2013-09-07 02:14:00,
2013-09-06 21:19:00,69.5,66.1,30.04,SSW,202,0.0,0.0,89,0.00,,SKC,0.00,VWS V14.01,2013-09-07 02:19:00,
2013-09-06 21:24:00,69.3,65.9,30.04,SSW,202,0.0,0.0,89,0.00,,SKC,0.00,VWS V14.01,2013-09-07 02:24:00,
2013-09-06 21:29:00,69.2,65.8,30.04,SSW,205,0.0,2.0,89,0.00,,SKC,0.00,VWS V14.01,2013-09-07 02:29:00,
2013-09-06 21:34:00,69.1,66.1,30.04,SSW,205,0.0,0.0,90,0.00,,SKC,0.00,VWS V14.01,2013-09-07 02:34:00,
2013-09-06 21:39:00,69.0,65.9,30.04,SSW,205,0.0,0.0,90,0.00,,SKC,0.00,VWS V14.01,2013-09-07 02:39:00,
2013-09-06 21:44:00,68.9,65.8,30.04,SSW,205,0.0,0.0,90,0.00,,SKC,0.00,VWS V14.01,2013-09-07 02:44:00,
2013-09-06 21:49:00,68.9,65.8,30.04,SSW,205,0.0,0.0,90,0.00,,SKC,0.00,VWS V14.01,2013-09-07 02:49:00,
2013-09-06 21:54:00,68.7,65.7,30.04,SSW,205,0.0,0.0,90,0.00,,SKC,0.00,VWS V14.01,2013-09-07 02:54:00,
2013-09-06 21:59:00,68.6,65.6,30.04,SSW,205,0.0,0.0,90,0.00,,SKC,0.00,VWS V14.01,2013-09-07 02:59:00,
2013-09-06 22:00:00,69.3,66.2,30.04,North,0,0.0,2.0,90,0.00,,,0.00,Cumulus v1.9.3,2013-09-07 03:00:00,
2013-09-06 22:04:00,68.4,65.7,30.04,SSW,205,0.0,0.0,91,0.00,,SKC,0.00,VWS V14.01,2013-09-07 03:04:00,
2013-09-06 22:09:00,68.3,65.6,30.04,SSW,205,0.0,0.0,91,0.00,,SKC,0.00,VWS V14.01,2013-09-07 03:09:00,
2013-09-06 22:14:00,68.1,65.4,30.04,SSW,205,0.0,0.0,91,0.00,,SKC,0.00,VWS V14.01,2013-09-07 03:14:00,
2013-09-06 22:19:00,68.0,65.3,30.04,SSW,205,0.0,0.0,91,0.00,,SKC,0.00,VWS V14.01,2013-09-07 03:19:00,
2013-09-06 22:24:00,67.9,65.2,30.04,NW,309,0.0,0.0,91,0.00,,SKC,0.00,VWS V14.01,2013-09-07 03:24:00,
2013-09-06 22:29:00,67.8,65.1,30.04,NW,309,0.0,0.0,91,0.00,,SKC,0.00,VWS V14.01,2013-09-07 03:29:00,
2013-09-06 22:34:00,67.7,65.0,30.04,NW,309,0.0,0.0,91,0.00,,SKC,0.00,VWS V14.01,2013-09-07 03:34:00,
2013-09-06 22:39:00,67.6,64.9,30.04,NW,309,0.0,0.0,91,0.00,,SKC,0.00,VWS V14.01,2013-09-07 03:39:00,
2013-09-06 22:44:00,67.5,65.1,30.04,NW,309,0.0,0.0,92,0.00,,SKC,0.00,VWS V14.01,2013-09-07 03:44:00,
2013-09-06 22:49:00,67.4,64.7,30.04,NW,309,0.0,0.0,91,0.00,,SKC,0.00,VWS V14.01,2013-09-07 03:49:00,
2013-09-06 22:54:00,67.3,64.9,30.03,NW,309,0.0,0.0,92,0.00,,SKC,0.00,VWS V14.01,2013-09-07 03:54:00,
2013-09-06 22:59:00,67.1,64.7,30.03,NW,309,0.0,0.0,92,0.00,,SKC,0.00,VWS V14.01,2013-09-07 03:59:00,
2013-09-06 23:00:00,67.8,65.4,30.04,North,0,0.0,2.0,92,0.00,,,0.00,Cumulus v1.9.3,2013-09-07 04:00:00,
2013-09-06 23:01:00,67.1,64.7,30.04,NW,309,0.0,0.0,92,0.00,,SKC,0.00,VWS V14.01,2013-09-07 04:01:00,
2013-09-06 23:06:00,67.0,64.6,30.03,NW,309,0.0,0.0,92,0.00,,SKC,0.00,VWS V14.01,2013-09-07 04:06:00,
2013-09-06 23:11:00,66.9,64.5,30.03,NW,309,0.0,0.0,92,0.00,,SKC,0.00,VWS V14.01,2013-09-07 04:11:00,
2013-09-06 23:16:00,66.8,64.4,30.03,NW,309,0.0,0.0,92,0.00,,SKC,0.00,VWS V14.01,2013-09-07 04:16:00,
2013-09-06 23:21:00,66.7,64.3,30.03,NW,309,0.0,0.0,92,0.00,,SKC,0.00,VWS V14.01,2013-09-07 04:21:00,
2013-09-06 23:26:00,66.5,64.1,30.03,NW,309,0.0,0.0,92,0.00,,SKC,0.00,VWS V14.01,2013-09-07 04:26:00,
2013-09-06 23:31:00,66.3,63.9,30.03,NW,309,0.0,0.0,92,0.00,,SKC,0.00,VWS V14.01,2013-09-07 04:31:00,
2013-09-06 23:36:00,66.1,63.7,30.03,NW,309,0.0,0.0,92,0.00,,SKC,0.00,VWS V14.01,2013-09-07 04:36:00,
2013-09-06 23:41:00,66.0,63.6,30.03,NW,309,0.0,0.0,92,0.00,,SKC,0.00,VWS V14.01,2013-09-07 04:41:00,
2013-09-06 23:46:00,66.0,63.6,30.03,NW,309,0.0,0.0,92,0.00,,SKC,0.00,VWS V14.01,2013-09-07 04:46:00,
2013-09-06 23:51:00,65.9,63.5,30.03,NW,309,0.0,0.0,92,0.00,,SKC,0.00,VWS V14.01,2013-09-07 04:51:00,
2013-09-06 23:56:00,65.8,63.4,30.03,NW,309,0.0,0.0,92,0.00,,SKC,0.00,VWS V14.01,2013-09-07 04:56:00,